TimeCDT,TemperatureF,Dew PointF,Humidity,Sea Level PressureIn,VisibilityMPH,Wind Direction,Wind SpeedMPH,Gust SpeedMPH,PrecipitationIn,Events,Conditions,WindDirDegrees,DateUTC
12:15 AM,70.0,58.8,68,29.98,10.0,North,8.1,-,N/A,,Clear,10,2013-06-17 05:15:00
12:35 AM,69.1,58.5,69,29.98,10.0,North,8.1,-,N/A,,Clear,10,2013-06-17 05:35:00
12:55 AM,69.1,58.3,68,29.97,10.0,North,6.9,-,N/A,,Clear,10,2013-06-17 05:55:00
1:15 AM,68.7,58.3,69,29.96,10.0,North,9.2,-,N/A,,Clear,10,2013-06-17 06:15:00
1:35 AM,68.9,57.9,68,29.97,10.0,NNE,6.9,-,N/A,,Clear,20,2013-06-17 06:35:00
1:55 AM,68.7,58.1,69,29.98,10.0,NNE,4.6,-,N/A,,Clear,30,2013-06-17 06:55:00
2:15 AM,67.6,58.3,72,29.98,10.0,Calm,Calm,-,N/A,,Clear,0,2013-06-17 07:15:00
2:35 AM,67.8,58.1,71,29.97,10.0,Calm,Calm,-,N/A,,Clear,0,2013-06-17 07:35:00
2:55 AM,67.3,57.9,72,29.97,10.0,Calm,Calm,-,N/A,,Clear,0,2013-06-17 07:55:00
3:15 AM,66.6,57.7,73,29.97,10.0,North,4.6,-,N/A,,Clear,10,2013-06-17 08:15:00
3:35 AM,66.6,57.2,72,29.96,10.0,NNE,6.9,-,N/A,,Clear,30,2013-06-17 08:35:00
3:55 AM,66.2,56.7,71,29.96,10.0,NNE,9.2,-,N/A,,Clear,20,2013-06-17 08:55:00
4:15 AM,66.2,56.3,70,29.96,10.0,NNE,8.1,-,N/A,,Clear,20,2013-06-17 09:15:00
4:35 AM,65.1,56.8,75,29.96,10.0,NNE,8.1,-,N/A,,Clear,20,2013-06-17 09:35:00
4:55 AM,64.6,56.7,75,29.96,10.0,North,8.1,-,N/A,,Clear,10,2013-06-17 09:55:00
5:15 AM,64.8,56.7,75,29.96,10.0,NNE,6.9,-,N/A,,Clear,20,2013-06-17 10:15:00
5:35 AM,64.2,56.7,76,29.97,10.0,North,6.9,-,N/A,,Clear,10,2013-06-17 10:35:00
5:55 AM,63.7,56.5,77,29.99,10.0,North,4.6,-,N/A,,Clear,350,2013-06-17 10:55:00
6:15 AM,62.4,57.0,82,30.01,10.0,SW,3.5,-,N/A,,Clear,220,2013-06-17 11:15:00
6:35 AM,63.3,56.5,78,30.01,10.0,Calm,Calm,-,N/A,,Clear,0,2013-06-17 11:35:00
6:55 AM,63.5,56.5,78,30.02,10.0,NW,3.5,-,N/A,,Clear,310,2013-06-17 11:55:00
7:15 AM,64.0,56.8,77,30.01,10.0,NNW,6.9,-,N/A,,Clear,340,2013-06-17 12:15:00
7:35 AM,67.5,57.0,69,30.02,10.0,North,8.1,-,N/A,,Clear,360,2013-06-17 12:35:00
7:55 AM,69.1,57.6,67,30.02,10.0,North,4.6,-,N/A,,Clear,360,2013-06-17 12:55:00
8:15 AM,70.7,57.6,63,30.03,10.0,North,5.8,-,N/A,,Clear,350,2013-06-17 13:15:00
8:35 AM,72.5,56.3,57,30.03,10.0,North,4.6,-,N/A,,Clear,360,2013-06-17 13:35:00
8:55 AM,73.4,57.9,58,30.03,10.0,NNW,4.6,-,N/A,,Clear,340,2013-06-17 13:55:00
9:15 AM,74.3,56.7,54,30.04,10.0,North,4.6,-,N/A,,Clear,360,2013-06-17 14:15:00
9:35 AM,74.7,56.1,52,30.04,10.0,NNW,3.5,-,N/A,,Clear,340,2013-06-17 14:35:00
9:55 AM,75.0,55.4,50,30.04,10.0,North,8.1,-,N/A,,Clear,350,2013-06-17 14:55:00
10:15 AM,75.4,55.6,50,30.04,10.0,NNW,5.8,-,N/A,,Clear,340,2013-06-17 15:15:00
10:35 AM,75.9,55.2,49,30.03,10.0,North,4.6,-,N/A,,Clear,350,2013-06-17 15:35:00
10:55 AM,77.0,55.8,48,30.03,10.0,North,6.9,-,N/A,,Clear,360,2013-06-17 15:55:00
11:15 AM,77.9,57.2,49,30.04,10.0,North,5.8,-,N/A,,Clear,350,2013-06-17 16:15:00
11:35 AM,78.1,55.9,46,30.04,10.0,NNW,3.5,-,N/A,,Clear,340,2013-06-17 16:35:00
11:55 AM,79.0,56.1,45,30.04,10.0,Calm,Calm,-,N/A,,Clear,0,2013-06-17 16:55:00
12:15 PM,79.3,55.8,44,30.04,10.0,WNW,5.8,-,N/A,,Clear,290,2013-06-17 17:15:00
12:35 PM,79.9,56.1,44,30.04,10.0,North,3.5,-,N/A,,Clear,350,2013-06-17 17:35:00
12:55 PM,80.8,55.8,42,30.04,10.0,North,3.5,-,N/A,,Clear,10,2013-06-17 17:55:00
1:15 PM,81.7,54.7,39,30.03,10.0,NNW,5.8,-,N/A,,Clear,340,2013-06-17 18:15:00
1:35 PM,82.6,53.8,37,30.03,10.0,West,4.6,-,N/A,,Clear,280,2013-06-17 18:35:00
1:55 PM,83.3,53.2,35,30.02,10.0,NW,5.8,-,N/A,,Clear,320,2013-06-17 18:55:00
2:15 PM,83.7,52.2,34,30.01,10.0,SW,8.1,-,N/A,,Clear,230,2013-06-17 19:15:00
2:35 PM,84.4,52.3,33,30.01,10.0,NW,5.8,-,N/A,,Clear,320,2013-06-17 19:35:00
2:55 PM,84.6,51.3,32,30.00,10.0,WSW,8.1,-,N/A,,Clear,250,2013-06-17 19:55:00
3:15 PM,84.9,51.4,31,30.00,10.0,NNW,4.6,-,N/A,,Clear,330,2013-06-17 20:15:00
3:35 PM,85.8,52.2,31,30.00,10.0,Calm,Calm,-,N/A,,Scattered Clouds,0,2013-06-17 20:35:00
3:55 PM,85.5,52.3,32,30.00,10.0,WNW,8.1,16.1,N/A,,Scattered Clouds,290,2013-06-17 20:55:00
4:15 PM,84.9,52.7,33,29.99,10.0,NW,8.1,-,N/A,,Scattered Clouds,320,2013-06-17 21:15:00
4:35 PM,86.0,52.9,32,29.98,10.0,NW,12.7,18.4,N/A,,Scattered Clouds,310,2013-06-17 21:35:00
4:55 PM,84.4,54.5,36,29.98,7.0,NNW,5.8,-,N/A,,Scattered Clouds,340,2013-06-17 21:55:00
5:15 PM,85.3,56.8,38,29.98,10.0,NNW,8.1,16.1,N/A,,Scattered Clouds,340,2013-06-17 22:15:00
5:35 PM,85.1,55.0,36,29.97,10.0,NNW,9.2,-,N/A,,Clear,330,2013-06-17 22:35:00
5:55 PM,84.6,56.3,38,29.96,10.0,North,9.2,-,N/A,,Clear,350,2013-06-17 22:55:00
6:15 PM,84.4,55.8,37,29.96,10.0,NNW,6.9,-,N/A,,Clear,340,2013-06-17 23:15:00
6:35 PM,84.2,54.1,35,29.97,10.0,NNW,9.2,-,N/A,,Clear,340,2013-06-17 23:35:00
6:55 PM,83.3,54.5,37,29.97,10.0,North,11.5,-,N/A,,Clear,360,2013-06-17 23:55:00
7:15 PM,82.4,53.8,37,29.97,10.0,North,8.1,-,N/A,,Clear,350,2013-06-18 00:15:00
7:35 PM,81.9,55.8,41,29.97,10.0,North,8.1,-,N/A,,Clear,360,2013-06-18 00:35:00
7:55 PM,80.6,55.0,41,29.96,10.0,North,6.9,-,N/A,,Clear,360,2013-06-18 00:55:00
8:15 PM,79.5,55.4,43,29.97,10.0,North,6.9,-,N/A,,Clear,350,2013-06-18 01:15:00
8:35 PM,78.1,55.2,45,29.97,10.0,NNW,5.8,-,N/A,,Clear,340,2013-06-18 01:35:00
8:55 PM,77.2,54.5,45,29.98,10.0,North,6.9,-,N/A,,Clear,350,2013-06-18 01:55:00
9:15 PM,75.6,54.1,47,29.98,10.0,NNW,5.8,-,N/A,,Clear,340,2013-06-18 02:15:00
9:35 PM,74.8,53.6,47,29.98,10.0,North,8.1,-,N/A,,Clear,350,2013-06-18 02:35:00
9:55 PM,74.5,53.2,47,30.00,10.0,North,9.2,-,N/A,,Clear,350,2013-06-18 02:55:00
10:15 PM,73.9,53.8,49,30.02,10.0,North,9.2,-,N/A,,Clear,360,2013-06-18 03:15:00
10:35 PM,72.9,53.8,51,30.02,10.0,North,8.1,-,N/A,,Clear,360,2013-06-18 03:35:00
10:55 PM,72.0,53.8,53,30.02,10.0,North,8.1,-,N/A,,Clear,360,2013-06-18 03:55:00
11:15 PM,71.2,53.8,54,30.03,10.0,North,8.1,-,N/A,,Clear,360,2013-06-18 04:15:00
11:35 PM,70.0,54.3,57,30.02,10.0,North,6.9,-,N/A,,Clear,360,2013-06-18 04:35:00
11:55 PM,69.3,54.3,59,30.02,10.0,North,6.9,-,N/A,,Clear,360,2013-06-18 04:55:00